This is the latest recevied weather packets stored in our database for station/object KC0RPY. If no packets are shown the sender has not sent any weather packets the latest 10 day(s).
| Time | Temp. | Humidity | Pressure | Rain* | Wind** | Luminosity | Snow |
|---|---|---|---|---|---|---|---|
| 1777535465 | 7.78° C | 79% | 1019.1 hPa | 0 mm | - | 0 W/m² | - |
| 1777535162 | 7.22° C | 84% | 1019.1 hPa | 0 mm | - | 0 W/m² | - |
| 1777534858 | 7.22° C | 85% | 1018.8 hPa | 0 mm | - | 0 W/m² | - |
| 1777534555 | 7.22° C | 85% | 1018.8 hPa | 0 mm | - | 0 W/m² | - |
| 1777534252 | 7.22° C | 84% | 1019.1 hPa | 0 mm | - | 0 W/m² | - |
| 1777533950 | 7.78° C | 85% | 1019.1 hPa | 0 mm | - | 0 W/m² | - |
| 1777533647 | 7.78° C | 84% | 1019.1 hPa | 0 mm | - | 0 W/m² | - |
| 1777533343 | 7.78° C | 86% | 1019.5 hPa | 0 mm | - | 0 W/m² | - |
| 1777533039 | 7.78° C | 86% | 1019.5 hPa | 0 mm | - | 0 W/m² | - |
| 1777532737 | 7.22° C | 87% | 1019.5 hPa | 0 mm | - | 0 W/m² | - |
| 1777532433 | 7.22° C | 86% | 1019.8 hPa | 0 mm | - | 0 W/m² | - |
| 1777532130 | 7.22° C | 86% | 1019.8 hPa | 0 mm | - | 0 W/m² | - |
| 1777531826 | 7.22° C | 86% | 1019.8 hPa | 0 mm | - | 0 W/m² | - |
| 1777531522 | 7.22° C | 87% | 1019.8 hPa | 0 mm | - | 0 W/m² | - |
| 1777531220 | 7.78° C | 87% | 1019.8 hPa | 0 mm | - | 0 W/m² | - |
| 1777530917 | 7.78° C | 87% | 1019.8 hPa | 0 mm | - | 0 W/m² | - |
| 1777530614 | 7.78° C | 87% | 1020.2 hPa | 0 mm | - | 0 W/m² | - |
| 1777530312 | 7.78° C | 87% | 1019.8 hPa | 0 mm | - | 0 W/m² | - |
| 1777530008 | 8.33° C | 85% | 1020.2 hPa | 0 mm | - | 0 W/m² | - |
| 1777529705 | 8.33° C | 85% | 1020.2 hPa | 0 mm | - | 0 W/m² | - |
| 1777529401 | 8.33° C | 85% | 1020.2 hPa | 0 mm | - | 0 W/m² | - |
| 1777529098 | 8.33° C | 84% | 1020.2 hPa | 0 mm | - | 0 W/m² | - |
| 1777528793 | 8.33° C | 84% | 1020.5 hPa | 0 mm | - | 0 W/m² | - |
| 1777528491 | 8.89° C | 82% | 1020.5 hPa | 0 mm | - | 0 W/m² | - |
| 1777528189 | 8.89° C | 81% | 1020.5 hPa | 0 mm | - | 0 W/m² | - |
* Rain latest hour (hover to see other rain measurements)
** Current wind speed in m/s (hover to see current wind gust speed)